Weather History for Elefsis, Greece

Change the Weather History Date:

Wednesday, February 8, 2012

  Actual Average Record
Temperature  
Mean Temperature 40 °F -  
Max Temperature 42 °F 56 °F 66 °F (2004)
Min Temperature 39 °F 40 °F 30 °F (2006)
Degree Days  
Heating Degree Days 24    
Moisture  
Dew Point 30 °F    
Average Humidity 68    
Maximum Humidity 81    
Minimum Humidity 61    
Precipitation  
Precipitation 0.00 in - - ()
Sea Level Pressure  
Sea Level Pressure 29.93 in    
Wind  
Wind Speed 16 mph ()    
Max Wind Speed 24 mph    
Max Gust Speed 40 mph    
Visibility 6.2 miles    
Events Rain    
Averages and records for this station are not official NWS values.
T = Trace of Precipitation, MM = Missing Value Source: Averaged Metar Reports

Daily Weather History Graph

Daily Weather History Graph

Search for Another Location

Airport:

Trip Planner

Search our weather history database for the weather conditions in past years. The results will help you decide how hot, cold, wet, or windy it might be!

Date:

Astronomy

Feb. 08, 2012 Rise Set
Actual Time 7:24 AM EET 5:55 PM EET
Civil Twilight 6:57 AM EET 6:23 PM EET
Nautical Twilight 6:25 AM EET 6:54 PM EET
Astronomical Twilight 5:55 AM EET 7:25 PM EET
Moon 6:51 PM EET (2/8) 7:18 AM EET (2/8)
Length of Visible Light 11h 26m
Length of Day
10h 31m
Full, 100% of the Moon is Illuminated
Feb 8
Full
Feb 14
Last Quarter
Feb 22
New
Mar 1
First Quarter
Mar 8
Full

Hourly Weather History & Observations

Time (EET) Temp. Windchill Dew Point Humidity Pressure Visibility Wind Dir Wind Speed Gust Speed Precip Events Conditions
12:20 AM 42.8 °F 36.2 °F 37.4 °F 81% 29.65 in 6.2 mi NW 12.7 mph - N/A Rain Light Rain
12:50 AM 41.0 °F 33.1 °F 33.8 °F 76% 29.68 in 6.2 mi NW 15.0 mph 26.5 mph N/A Rain Light Rain
1:20 AM 41.0 °F 32.8 °F 33.8 °F 76% 29.68 in 6.2 mi NW 16.1 mph 28.8 mph N/A Rain Light Rain
1:50 AM 41.0 °F 31.9 °F 35.6 °F 81% 29.71 in 6.2 mi NW 19.6 mph 34.5 mph N/A Rain Light Rain
2:20 AM 41.0 °F 31.6 °F 35.6 °F 81% 29.71 in 6.2 mi NW 20.7 mph 34.5 mph N/A Rain Light Rain
2:50 AM 39.2 °F 29.0 °F 33.8 °F 81% 29.74 in 6.2 mi NW 21.9 mph 36.8 mph N/A   Mostly Cloudy
3:50 AM 39.2 °F 30.2 °F 32.0 °F 75% 29.77 in 6.2 mi NW 17.3 mph 31.1 mph N/A   Mostly Cloudy
4:20 AM 39.2 °F 30.5 °F 32.0 °F 75% 29.80 in 6.2 mi NW 16.1 mph 28.8 mph N/A   Mostly Cloudy
4:50 AM 39.2 °F 29.8 °F 32.0 °F 75% 29.83 in 6.2 mi NW 18.4 mph 32.2 mph N/A   Mostly Cloudy
5:20 AM 39.2 °F 29.0 °F 32.0 °F 75% 29.83 in 6.2 mi NNW 21.9 mph 34.5 mph N/A   Mostly Cloudy
5:50 AM 39.2 °F 29.3 °F 30.2 °F 70% 29.83 in 6.2 mi NNW 20.7 mph 34.5 mph N/A   Mostly Cloudy
6:20 AM 39.2 °F 29.6 °F 30.2 °F 70% 29.83 in 6.2 mi NNW 19.6 mph 31.1 mph N/A   Mostly Cloudy
6:50 AM 39.2 °F 30.2 °F 30.2 °F 70% 29.86 in 6.2 mi NNW 17.3 mph 28.8 mph N/A   Mostly Cloudy
7:20 AM 39.2 °F 30.8 °F 30.2 °F 70% 29.86 in 6.2 mi NNW 15.0 mph 26.5 mph N/A   Mostly Cloudy
7:50 AM 39.2 °F 31.6 °F 30.2 °F 70% 29.89 in 6.2 mi NNW 12.7 mph 24.2 mph N/A   Mostly Cloudy
8:20 AM 39.2 °F 32.0 °F 30.2 °F 70% 29.89 in 6.2 mi NNW 11.5 mph 23.0 mph N/A   Mostly Cloudy
8:50 AM 39.2 °F 30.5 °F 28.4 °F 65% 29.92 in 6.2 mi NNW 16.1 mph 27.6 mph N/A   Mostly Cloudy
9:50 AM 41.0 °F 34.3 °F 30.2 °F 65% 29.95 in 6.2 mi NNW 11.5 mph 23.0 mph N/A   Mostly Cloudy
10:20 AM 41.0 °F 32.8 °F 30.2 °F 65% 29.95 in 6.2 mi NNW 16.1 mph 34.5 mph N/A   Mostly Cloudy
10:50 AM 42.8 °F 34.5 °F 30.2 °F 61% 29.98 in 6.2 mi NNW 18.4 mph 34.5 mph N/A   Mostly Cloudy
11:20 AM 42.8 °F 34.5 °F 30.2 °F 61% 29.98 in 6.2 mi NNW 18.4 mph 34.5 mph N/A   Mostly Cloudy
11:50 AM 42.8 °F 33.8 °F 30.2 °F 61% 29.98 in 6.2 mi NNW 21.9 mph 38.0 mph N/A   Mostly Cloudy
12:20 PM 41.0 °F 31.4 °F 30.2 °F 65% 29.98 in 6.2 mi NNW 21.9 mph 38.0 mph N/A   Mostly Cloudy
12:50 PM 41.0 °F 31.9 °F 30.2 °F 65% 29.98 in 6.2 mi NNW 19.6 mph 34.5 mph N/A   Mostly Cloudy
1:20 PM 41.0 °F 32.2 °F 30.2 °F 65% 29.98 in 6.2 mi NNW 18.4 mph 33.4 mph N/A   Mostly Cloudy
1:50 PM 41.0 °F 32.2 °F 30.2 °F 65% 29.98 in 6.2 mi NNW 18.4 mph 32.2 mph N/A   Mostly Cloudy
2:20 PM 41.0 °F 31.9 °F 28.4 °F 61% 29.98 in 6.2 mi NNW 19.6 mph 33.4 mph N/A   Mostly Cloudy
2:50 PM 41.0 °F 30.9 °F 30.2 °F 65% 29.98 in 6.2 mi NNW 24.2 mph 40.3 mph N/A   Mostly Cloudy
3:20 PM 41.0 °F 31.9 °F 30.2 °F 65% 29.98 in 6.2 mi NNW 19.6 mph 33.4 mph N/A   Mostly Cloudy
3:50 PM 41.0 °F 31.4 °F 28.4 °F 61% 29.98 in 6.2 mi NNW 21.9 mph 35.7 mph N/A   Mostly Cloudy
4:20 PM 41.0 °F 32.2 °F 28.4 °F 61% 29.98 in 6.2 mi NNW 18.4 mph 31.1 mph N/A   Mostly Cloudy
4:50 PM 41.0 °F 33.1 °F 28.4 °F 61% 30.04 in 6.2 mi NNW 15.0 mph 26.5 mph N/A   Mostly Cloudy
5:20 PM 41.0 °F 33.1 °F 28.4 °F 61% 30.04 in 6.2 mi NNW 15.0 mph 26.5 mph N/A   Mostly Cloudy
5:50 PM 39.2 °F 32.0 °F 28.4 °F 65% 30.01 in 6.2 mi NNW 11.5 mph 23.0 mph N/A   Mostly Cloudy
6:20 PM 39.2 °F 30.8 °F 28.4 °F 65% 30.01 in 6.2 mi NW 15.0 mph 27.6 mph N/A   Mostly Cloudy
6:50 PM 39.2 °F 30.8 °F 28.4 °F 65% 30.04 in 6.2 mi NW 15.0 mph 27.6 mph N/A   Scattered Clouds
7:20 PM 39.2 °F 30.8 °F 28.4 °F 65% 30.04 in 6.2 mi NW 15.0 mph 28.8 mph N/A   Scattered Clouds
7:50 PM 39.2 °F 30.2 °F 28.4 °F 65% 30.04 in 6.2 mi NW 17.3 mph 28.8 mph N/A   Scattered Clouds
8:20 PM 39.2 °F 31.2 °F 28.4 °F 65% 30.04 in 6.2 mi NW 13.8 mph - N/A   Scattered Clouds
8:50 PM 39.2 °F 30.8 °F 28.4 °F 65% 30.04 in 6.2 mi NW 15.0 mph 26.5 mph N/A   Scattered Clouds
9:20 PM 39.2 °F 32.0 °F 28.4 °F 65% 30.04 in 6.2 mi NNW 11.5 mph 24.2 mph N/A   Scattered Clouds
9:50 PM 39.2 °F 29.8 °F 28.4 °F 65% 30.06 in 6.2 mi NNW 18.4 mph 29.9 mph N/A   Scattered Clouds
10:20 PM 39.2 °F 30.5 °F 28.4 °F 65% 30.06 in 6.2 mi NNW 16.1 mph 27.6 mph N/A   Scattered Clouds
10:50 PM 39.2 °F 30.8 °F 28.4 °F 65% 30.06 in 6.2 mi NNW 15.0 mph 26.5 mph N/A   Scattered Clouds
11:20 PM 39.2 °F 30.8 °F 28.4 °F 65% 30.06 in 6.2 mi NW 15.0 mph 26.5 mph N/A   Scattered Clouds
11:50 PM 39.2 °F 30.5 °F 28.4 °F 65% 30.06 in 6.2 mi NNW 16.1 mph 34.5 mph N/A   Scattered Clouds